KF4PPJ Weather Reports


time (UTC)temp
F
wind
direction
speed
knots
gust
knots
rain 1hr
in
rain 24hr
in
rain mn
in
humidity
%
barometer
mb
20260503223427 81 209 3.5 5.2 0.00 0.00 0.00 38 1013.4
20260503222922 81 190 2.6 2.6 0.00 0.00 0.00 37 1013.6
20260503222421 81 246 3.5 5.2 0.00 0.00 0.00 39 1013.6
20260503221919 80 236 2.6 5.2 0.00 0.00 0.00 40 1013.9
20260503221417 79 191 3.5 7.8 0.00 0.00 0.00 40 1013.9
20260503220913 80 269 6.1 7.0 0.00 0.00 0.00 39 1013.9
20260503220410 80 207 6.1 7.8 0.00 0.00 0.00 38 1013.9
20260503215907 81 359 4.3 5.2 0.00 0.00 0.00 39 1014.0
20260503215404 81 206 2.6 4.3 0.00 0.00 0.00 39 1013.9
20260503214901 79 218 3.5 5.2 0.00 0.00 0.00 40 1014.0
20260503214358 79 254 3.5 6.1 0.00 0.00 0.00 41 1014.1
20260503213856 79 29 4.3 6.1 0.00 0.00 0.00 40 1014.1
20260503213354 80 222 3.5 9.6 0.00 0.00 0.00 40 1014.2
20260503212850 80 232 2.6 5.2 0.00 0.00 0.00 40 1014.1
20260503212348 80 234 2.6 6.1 0.00 0.00 0.00 40 1014.2
20260503211845 79 245 2.6 4.3 0.00 0.00 0.00 42 1014.3
20260503211342 78 251 5.2 7.0 0.00 0.00 0.00 41 1014.3
20260503210837 78 132 1.7 4.3 0.00 0.00 0.00 42 1014.3
20260503210334 79 256 5.2 6.1 0.00 0.00 0.00 40 1014.4
20260503205829 79 243 3.5 5.2 0.00 0.00 0.00 41 1014.4
20260503205326 79 6 3.5 6.1 0.00 0.00 0.00 40 1014.4
20260503204823 79 282 4.3 5.2 0.00 0.00 0.00 41 1014.6
20260503204320 79 159 2.6 2.6 0.00 0.00 0.00 41 1014.8
20260503203817 79 244 3.5 5.2 0.00 0.00 0.00 42 1014.5
20260503203315 78 140 0.9 2.6 0.00 0.00 0.00 43 1014.6
20260503202811 78 233 2.6 4.3 0.00 0.00 0.00 43 1014.7
20260503202310 79 353 5.2 12.2 0.00 0.00 0.00 42 1014.7
20260503201807 78 164 0.9 1.7 0.00 0.00 0.00 44 1014.9
20260503201304 79 177 5.2 7.0 0.00 0.00 0.00 42 1015.0
20260503200802 79 155 0.9 1.7 0.00 0.00 0.00 43 1015.0
20260503200257 78 205 2.6 4.3 0.00 0.00 0.00 45 1015.0
20260503195755 78 175 2.6 7.0 0.00 0.00 0.00 44 1014.9
20260503195251 78 254 2.6 4.3 0.00 0.00 0.00 44 1015.1
20260503194749 78 126 1.7 2.6 0.00 0.00 0.00 45 1015.3
20260503194245 77 164 0.9 1.7 0.00 0.00 0.00 46 1015.2
20260503193741 77 146 3.5 6.1 0.00 0.00 0.00 46 1015.4
20260503193237 77 14 2.6 4.3 0.00 0.00 0.00 48 1015.4
20260503192733 77 231 6.1 7.0 0.00 0.00 0.00 44 1015.5
20260503192228 77 116 2.6 2.6 0.00 0.00 0.00 46 1015.4
20260503191725 77 100 3.5 5.2 0.00 0.00 0.00 45 1015.4
20260503191222 76 143 0.9 6.1 0.00 0.00 0.00 47 1015.6
20260503190719 77 144 3.5 6.1 0.00 0.00 0.00 46 1015.8
20260503190215 76 342 3.5 5.2 0.00 0.00 0.00 47 1015.8
20260503185713 76 177 2.6 4.3 0.00 0.00 0.00 45 1015.7
20260503185208 76 78 2.6 4.3 0.00 0.00 0.00 48 1016.0
20260503184703 76 112 1.7 6.1 0.00 0.00 0.00 48 1016.1
20260503184200 76 118 0.9 6.1 0.00 0.00 0.00 48 1016.1
20260503183656 75 86 2.6 6.1 0.00 0.00 0.00 48 1016.2
20260503183154 76 115 3.5 6.1 0.00 0.00 0.00 48 1016.4
20260503182651 74 159 0.0 1.7 0.00 0.00 0.00 49 1015.9
20260503182150 74 130 3.5 6.1 0.00 0.00 0.00 50 1016.3
20260503181646 74 136 4.3 5.2 0.00 0.00 0.00 51 1016.3
20260503181143 73 189 1.7 6.1 0.00 0.00 0.00 51 1016.3
20260503180640 73 165 5.2 7.8 0.00 0.00 0.00 51 1016.5
20260503180138 73 34 4.3 9.6 0.00 0.00 0.00 52 1016.3
20260503175635 73 9 4.3 6.1 0.00 0.00 0.00 51 1016.2
20260503175132 74 64 4.3 6.1 0.00 0.00 0.00 52 1016.3
20260503174623 73 130 2.6 5.2 0.00 0.00 0.00 52 1016.5
20260503174120 72 155 0.9 5.2 0.00 0.00 0.00 52 1016.4
20260503173615 71 249 2.6 4.3 0.00 0.00 0.00 55 1016.5
20260503173112 71 178 0.9 1.7 0.00 0.00 0.00 57 1016.3
20260503172609 71 220 4.3 5.2 0.00 0.00 0.00 52 1016.5
20260503172106 71 62 3.5 5.2 0.00 0.00 0.00 52 1016.6
20260503171602 71 183 1.7 1.7 0.00 0.00 0.00 53 1016.6
20260503171100 72 95 4.3 7.0 0.00 0.00 0.00 51 1016.6
20260503170556 71 183 1.7 2.6 0.00 0.00 0.00 52 1016.5
20260503150949 60 167 0.0 0.9 0.00 0.00 0.00 74 1017.0
20260503150445 59 157 0.0 0.0 0.00 0.00 0.00 78 1016.9
20260503131331 51 151 0.0 0.0 0.00 0.00 0.00 90 1017.0
20260503130829 51 151 0.0 0.0 0.00 0.00 0.00 90 1016.8
20260503130327 51 149 0.0 0.0 0.00 0.00 0.00 90 1016.8
20260503110720 53 150 0.0 0.9 0.00 0.00 0.00 84 1017.0
20260503110218 53 151 0.0 0.0 0.00 0.00 0.00 83 1017.1
20260503100144 55 112 1.7 1.7 0.00 0.00 0.00 79 1017.0
20260503081538 57 148 0.0 0.0 0.00 0.00 0.00 73 1017.2
20260503081036 57 147 0.0 0.9 0.00 0.00 0.00 73 1017.2
20260503080531 57 149 0.0 0.9 0.00 0.00 0.00 72 1017.0
20260503072506 60 138 0.9 0.9 0.00 0.00 0.00 65 1017.2
20260503072003 60 106 1.7 1.7 0.00 0.00 0.00 64 1017.1
20260503071500 60 122 0.9 0.9 0.00 0.00 0.00 64 1017.0
20260503070955 60 134 0.9 1.7 0.00 0.00 0.00 65 1017.0
20260503070453 60 132 0.9 0.9 0.00 0.00 0.00 64 1017.1
20260503054906 61 143 0.0 0.9 0.00 0.00 0.00 69 1016.8
20260503054402 61 118 1.7 1.7 0.00 0.00 0.00 68 1016.7
20260503053900 60 120 0.9 1.7 0.00 0.00 0.00 69 1016.7
20260503053358 60 131 0.9 1.7 0.00 0.00 0.00 70 1016.8
20260503052853 60 128 0.9 1.7 0.00 0.00 0.00 70 1016.8
20260503052351 60 145 0.0 0.9 0.00 0.00 0.00 71 1016.7
20260503051847 60 154 0.9 1.7 0.00 0.00 0.00 71 1016.8
20260503051343 60 153 0.9 1.7 0.00 0.00 0.00 72 1016.8
20260503050841 60 147 0.0 0.9 0.00 0.00 0.00 71 1016.8
20260503050336 60 164 0.0 1.7 0.00 0.00 0.00 71 1016.7
20260503045834 60 147 0.9 1.7 0.00 0.00 0.00 71 1016.7
20260503045332 60 152 0.9 0.9 0.00 0.00 0.00 70 1016.8
20260503044828 60 142 0.9 0.9 0.00 0.00 0.00 70 1016.8
20260503044325 61 152 0.0 0.9 0.00 0.00 0.00 70 1016.7
20260503043822 61 153 0.9 0.9 0.00 0.00 0.00 70 1016.6
20260503043319 61 147 0.0 0.9 0.00 0.00 0.00 70 1016.7
20260503042815 61 148 0.0 0.0 0.00 0.00 0.00 69 1016.5
20260503042312 62 146 0.0 0.9 0.00 0.00 0.00 68 1016.3
20260503041808 62 146 0.9 0.9 0.00 0.00 0.00 68 1016.2
20260503041306 62 146 0.0 0.9 0.00 0.00 0.00 67 1016.5
20260503040803 62 144 0.0 0.9 0.00 0.00 0.00 67 1016.3
20260503040301 63 142 0.9 0.9 0.00 0.00 0.00 66 1016.3
20260503035757 63 146 0.0 0.9 0.00 0.00 0.00 66 1016.0
20260503035255 63 140 0.0 0.9 0.00 0.00 0.00 65 1016.0
20260503034752 64 139 0.0 0.9 0.00 0.00 0.00 65 1016.0
20260503034249 64 137 0.0 0.9 0.00 0.00 0.00 63 1015.9
20260503033746 65 131 0.9 1.7 0.00 0.00 0.00 63 1015.8
20260503033244 66 126 0.9 1.7 0.00 0.00 0.00 62 1015.8
20260503032742 66 125 1.7 1.7 0.00 0.00 0.00 62 1015.7
20260503032240 67 154 0.0 0.9 0.00 0.00 0.00 62 1015.8
20260503031737 67 160 0.0 0.9 0.00 0.00 0.00 59 1015.7
20260503031235 67 152 0.0 0.9 0.00 0.00 0.00 61 1015.7
20260503030731 68 172 0.9 0.9 0.00 0.00 0.00 60 1015.7
20260503030227 68 126 0.0 0.9 0.00 0.00 0.00 59 1015.7
20260503025724 69 150 0.0 0.9 0.00 0.00 0.00 59 1015.6
20260503025222 69 135 0.9 0.9 0.00 0.00 0.00 59 1015.4
20260503024718 70 150 0.9 6.1 0.00 0.00 0.00 55 1015.3
20260503024216 71 124 0.0 0.9 0.00 0.00 0.00 53 1015.4
20260503023712 71 149 0.0 2.6 0.00 0.00 0.00 53 1015.2
20260503023204 71 329 1.7 2.6 0.00 0.00 0.00 52 1015.2
20260503022700 72 124 0.9 4.3 0.00 0.00 0.00 52 1015.2
20260503022200 72 180 3.5 7.0 0.00 0.00 0.00 51 1015.3
20260503021657 72 111 1.7 1.7 0.00 0.00 0.00 52 1015.2
20260503021153 73 191 2.6 4.3 0.00 0.00 0.00 51 1015.2
20260503020651 73 23 2.6 5.2 0.00 0.00 0.00 51 1015.2
20260503020148 73 4 2.6 6.1 0.00 0.00 0.00 51 1015.3
20260503015645 73 348 5.2 7.0 0.00 0.00 0.00 50 1015.0
20260503015142 73 160 0.9 6.1 0.00 0.00 0.00 50 1015.2
20260503014637 74 123 3.5 4.3 0.00 0.00 0.00 49 1015.2
20260503014136 74 132 1.7 2.6 0.00 0.00 0.00 49 1015.2
20260503013633 74 340 3.5 6.1 0.00 0.00 0.00 48 1015.3
20260503013131 75 332 7.0 12.2 0.00 0.00 0.00 48 1015.2
20260503012627 75 187 1.7 2.6 0.00 0.00 0.00 46 1015.1
20260503012124 75 161 0.9 6.1 0.00 0.00 0.00 46 1015.5
20260503011621 76 155 1.7 5.2 0.00 0.00 0.00 46 1015.5
20260503011118 76 158 0.9 1.7 0.00 0.00 0.00 46 1015.4
20260503010614 76 116 0.9 4.3 0.00 0.00 0.00 45 1015.4
20260503010112 76 32 4.3 6.1 0.00 0.00 0.00 45 1015.5
20260503005608 76 69 2.6 4.3 0.00 0.00 0.00 45 1015.6
20260503005106 75 300 4.3 6.1 0.00 0.00 0.00 46 1015.5
20260503004602 76 44 4.3 9.6 0.00 0.00 0.00 45 1015.4
20260503004101 76 241 3.5 5.2 0.00 0.00 0.00 46 1015.6
20260503003556 76 359 4.3 6.1 0.00 0.00 0.00 45 1015.5
20260503003054 77 150 0.9 5.2 0.00 0.00 0.00 45 1015.5
20260503002550 77 190 1.7 4.3 0.00 0.00 0.00 46 1015.6
20260503002048 77 155 1.7 5.2 0.00 0.00 0.00 45 1015.6
20260503001543 77 160 0.9 4.3 0.00 0.00 0.00 45 1015.6
20260503001041 77 164 3.5 5.2 0.00 0.00 0.00 45 1015.7
20260503000538 77 115 1.7 6.1 0.00 0.00 0.00 45 1015.6
20260503000035 77 76 3.5 6.1 0.00 0.00 0.00 45 1015.8
20260502235532 76 218 1.7 2.6 0.00 0.00 0.00 45 1015.9
20260502235030 76 218 2.6 4.3 0.00 0.00 0.00 45 1015.8
20260502234526 75 151 0.9 2.6 0.00 0.00 0.00 45 1015.8
20260502234023 76 25 4.3 7.0 0.00 0.00 0.00 45 1015.9
20260502233518 76 112 1.7 7.8 0.00 0.00 0.00 45 1016.1
20260502233016 76 170 2.6 4.3 0.00 0.00 0.00 44 1016.2
20260502232512 76 11 4.3 6.1 0.00 0.00 0.00 44 1016.2
20260502232009 76 212 2.6 4.3 0.00 0.00 0.00 43 1016.4
20260502231506 76 246 3.5 7.0 0.00 0.00 0.00 43 1016.2
20260502231004 75 113 1.7 6.1 0.00 0.00 0.00 44 1016.6
20260502230502 76 40 2.6 5.2 0.00 0.00 0.00 43 1016.6
20260502230000 76 185 2.6 6.1 0.00 0.00 0.00 43 1016.8
20260502225455 76 176 0.0 5.2 0.00 0.00 0.00 44 1016.8
20260502224952 76 173 4.3 6.1 0.00 0.00 0.00 45 1016.7
20260502224449 77 143 2.6 4.3 0.00 0.00 0.00 45 1016.7
20260502223946 76 220 2.6 6.1 0.00 0.00 0.00 46 1016.7